User: anonymous   Login
Location: Unspecified
(0.0000°N, 0.0000°E)
Time: 20:11:11
(UTC+01:00)
Language:

Cosmos 540 Rocket - Orbit

View from above orbital plane
View from above orbital plane
View from above satellite
View from above satellite

Ground track
Ground track

The orbit data is extracted from the following two-line orbital elements,

1 06324U 72104B   15085.42887022  .00000339  00000-0  10871-3 0  9996
2 06324 074.0780 173.8044 0008806 170.4826 189.6500 14.43143186218173
Epoch (UTC): 26 March 2015 10:17:34
Eccentricity: 0.0008806
inclination: 74.0780°
perigee height: 742 km
apogee height: 754 km
right ascension of ascending node: 173.8044°
argument of perigee: 170.4826°
revolutions per day: 14.43143186
mean anomaly at epoch: 189.6500°
orbit number at epoch: 21817

The dashed part of the orbit path shows where the satellite is in the earth's shadow,  

DLR